Location: Newark
(35.8833°N, 14.5000°E)
Time: 18:58:36
(UTC+00:00)

deb Explorer IX - All Passes

Search period start: 20 November 2019 00:00
Search period end: 30 November 2019 00:00
Orbit: 546 x 1105 km, 38.8° (Epoch: 20 November)

Date Brightness Start Highest point End Pass type
(mag) Time Alt. Az. Time Alt. Az. Time Alt. Az.
20 Nov - 00:05:11 10° WSW 00:11:55 87° SSE 00:17:41 10° ENE night (unlit)
20 Nov - 01:53:17 10° W 01:59:23 65° N 02:04:32 10° E visible
20 Nov - 03:41:11 10° WNW 03:46:43 89° SSW 03:51:24 10° ESE visible
20 Nov - 05:29:09 10° W 05:33:14 26° SW 05:36:55 10° SSE daylight
20 Nov - 20:15:24 10° SE 20:16:03 10° SE 20:16:43 10° SE night (unlit)
20 Nov - 21:56:14 10° SSW 22:02:42 38° SSE 22:08:35 10° E night (unlit)
20 Nov - 23:43:01 10° WSW 23:49:53 88° SSE 23:55:49 10° ENE night (unlit)
21 Nov - 01:31:08 10° W 01:37:25 65° N 01:42:43 10° E visible
21 Nov - 03:19:04 10° WNW 03:24:47 88° SSW 03:29:36 10° ESE visible
21 Nov - 05:07:07 10° W 05:11:19 27° SW 05:15:05 10° SSE visible
21 Nov - 19:52:27 10° SSE 19:53:58 11° SE 19:55:29 10° SE night (unlit)
21 Nov - 21:34:00 10° SW 21:40:37 39° SSE 21:46:40 10° E night (unlit)
21 Nov - 23:20:50 10° WSW 23:27:51 89° SSE 23:33:57 10° ENE night (unlit)
22 Nov - 01:08:58 10° W 01:15:25 66° N 01:20:54 10° E night (unlit)
22 Nov - 02:56:56 10° WNW 03:02:50 87° SSW 03:07:48 10° ESE visible
22 Nov - 04:45:02 10° W 04:49:23 27° SW 04:53:15 10° SSE visible
22 Nov - 19:29:51 10° SSE 19:31:53 11° SE 19:33:52 10° ESE night (unlit)
22 Nov - 21:11:49 10° SW 21:18:30 40° SSE 21:24:43 10° E night (unlit)
22 Nov - 22:58:39 10° WSW 23:05:47 90° NE 23:12:02 10° ENE night (unlit)
23 Nov - 00:46:48 10° W 00:53:25 67° N 00:59:03 10° E night (unlit)
23 Nov - 02:34:47 10° WNW 02:40:52 86° SSW 02:45:58 10° ESE visible
23 Nov - 04:22:57 10° W 04:27:27 27° SW 04:31:25 10° SSE visible
23 Nov - 19:07:25 10° SSE 19:09:46 12° SE 19:12:06 10° ESE visible
23 Nov - 20:49:37 10° SW 20:56:23 41° SSE 21:02:45 10° E night (unlit)
23 Nov - 22:36:28 10° WSW 22:43:41 89° NNW 22:50:07 10° ENE night (unlit)
24 Nov - 00:24:37 10° W 00:31:23 67° N 00:37:11 10° E night (unlit)
24 Nov - 02:12:37 10° WNW 02:18:53 85° SSW 02:24:09 10° ESE visible
24 Nov - 04:00:50 10° W 04:05:29 27° SW 04:09:35 10° SSE visible
24 Nov - 18:45:03 10° SSE 18:47:39 12° SE 18:50:15 10° ESE visible
24 Nov - 20:27:27 10° SW 20:34:16 42° SSE 20:40:46 10° E night (unlit)
24 Nov - 22:14:18 10° WSW 22:21:35 88° NNW 22:28:10 10° ENE night (unlit)
25 Nov - 00:02:25 10° W 00:09:20 68° N 00:15:19 10° E night (unlit)
25 Nov - 01:50:27 10° WNW 01:56:53 84° SSW 02:02:19 10° ESE visible
25 Nov - 03:38:42 10° W 03:43:30 28° SW 03:47:44 10° SSE visible
25 Nov - 18:22:45 10° SSE 18:25:32 12° SE 18:28:20 10° ESE visible
25 Nov - 20:05:17 10° SW 20:12:07 43° SSE 20:18:45 10° E visible
25 Nov - 21:52:08 10° WSW 21:59:28 88° NNW 22:06:12 10° ENE night (unlit)
25 Nov - 23:40:15 10° W 23:47:16 68° N 23:53:25 10° E night (unlit)
26 Nov - 01:28:16 10° WNW 01:34:52 83° SSW 01:40:27 10° ESE visible
26 Nov - 03:16:33 10° W 03:21:32 28° SW 03:25:53 10° SSE visible
26 Nov - 18:00:30 10° SSE 18:03:25 13° SE 18:06:22 10° ESE visible
26 Nov - 19:43:08 10° SW 19:49:59 44° SSE 19:56:42 10° E visible
26 Nov - 21:29:58 10° WSW 21:37:21 87° NNW 21:44:12 10° ENE night (unlit)
26 Nov - 23:18:03 10° W 23:25:11 69° N 23:31:30 10° E night (unlit)
27 Nov - 01:06:04 10° WNW 01:12:49 82° SSW 01:18:35 10° ESE night (unlit)
27 Nov - 02:54:23 10° W 02:59:31 28° SW 03:04:01 10° SSE visible
27 Nov - 17:38:17 10° SSE 17:41:17 13° SE 17:44:21 10° ESE visible
27 Nov - 19:21:00 10° SW 19:27:49 45° SSE 19:34:39 10° E visible
27 Nov - 21:07:50 10° WSW 21:15:13 86° NNW 21:22:12 10° ENE night (unlit)
27 Nov - 22:55:53 10° W 23:03:05 69° N 23:09:34 10° E night (unlit)
28 Nov - 00:43:52 10° WNW 00:50:46 82° SSW 00:56:41 10° ESE night (unlit)
28 Nov - 02:32:12 10° W 02:37:29 28° SW 02:42:08 10° SSE visible
28 Nov - 17:16:06 10° SSE 17:19:10 13° SE 17:22:18 10° ESE visible
28 Nov - 18:58:53 10° SW 19:05:40 46° SSE 19:12:33 10° ENE visible
28 Nov - 20:45:41 10° WSW 20:53:04 86° NNW 21:00:10 10° ENE visible
28 Nov - 22:33:42 10° W 22:40:59 70° N 22:47:36 10° E night (unlit)
29 Nov - 00:21:40 10° WNW 00:28:41 81° SSW 00:34:47 10° ESE night (unlit)
29 Nov - 02:10:01 10° W 02:15:26 29° SW 02:20:13 10° SSE visible
29 Nov - 16:53:58 10° SSE 16:57:03 13° SE 17:00:12 10° ESE visible
29 Nov - 18:36:47 10° SW 18:43:30 46° SSE 18:50:26 10° ENE visible
29 Nov - 20:23:34 10° WSW 20:30:55 85° NNW 20:38:06 10° ENE visible
29 Nov - 22:11:32 10° W 22:18:51 70° N 22:25:37 10° E night (unlit)
